Regional Weather Roundup
Issued by NWS

Home | Current Version | Previous Version | Graphics & Text | Print | Product List | Glossary On
Versions: 1 2 3 4 5 6 7 8 9 10 11 12 13 14 15 16 17 18 19 20 21 22 23 24 25 26 27 28 29 30 31 32 33 34 35 36 37 38 39 40 41 42 43 44 45 46 47 48 49 50
331
ASUS43 KMKX 212321
RWRWI

WISCONSIN REGIONAL WEATHER ROUNDUP
NATIONAL WEATHER SERVICE MILWAUKEE/SULLIVAN WI
600 PM CDT THU MAY 21 2015

NOTE: "FAIR" INDICATES FEW OR NO CLOUDS BELOW 12,000 FEET WITH NO
SIGNIFICANT WEATHER AND/OR OBSTRUCTIONS TO VISIBILITY.

WIZ001-002-006>008-014>016-023>028-220000-
NORTHWEST WISCONSIN

CITY           SKY/WX    TMP DP  RH WIND       PRES   REMARKS
SUPERIOR ARPT  SUNNY     69  29  22 N15       30.00S
ASHLAND        SUNNY     65  34  31 N3        30.01S
HAYWARD        SUNNY     67  26  21 N7        30.00S
SIREN          SUNNY     70  29  21 NW12      30.01F
CUMBERLAND     SUNNY     68  32  26 NW12G17   30.00F
RICE LAKE      SUNNY     69  31  24 NW12      30.01F
CHETEK         SUNNY     68  34  28 N6        30.00S
LADYSMITH      SUNNY     67  32  26 NW12G17   30.01S
EAU CLAIRE     SUNNY     71  35  26 N10G21    29.97S
MENOMONIE      MOSUNNY   73  34  24 NW12G17   29.98S
NEW RICHMOND   SUNNY     71  30  22 NW15      30.02S
OSCEOLA        SUNNY     70  34  26 NW14G20   30.04S
$$

WIZ003>005-009-010-017-018-220000-
NORTH CENTRAL WISCONSIN

CITY           SKY/WX    TMP DP  RH WIND       PRES   REMARKS
MANITOWISH WTR SUNNY     60  29  30 N6G16     30.01S
ARBOR VITAE    SUNNY     62  26  26 N17G23    30.00S
WOODRUFF       SUNNY     62  26  26 N17G23    30.00S
RHINELANDER    SUNNY     62  25  24 N10G21    30.00R
EAGLE RIVER    SUNNY     60  23  24 N10G20    29.99S
LAND O LAKES   SUNNY     60  26  26 N13       30.01S
PHILLIPS       SUNNY     63  32  31 N9        30.00S
TOMAHAWK       SUNNY     63  26  24 N9G18     30.00R
MEDFORD        SUNNY     65  34  31 N13G21    29.98R
MERRILL        SUNNY     66  29  25 N17G23    29.98R
$$

WIZ029-030-035-036-043>047-220000-
CENTRAL WISCONSIN

CITY           SKY/WX    TMP DP  RH WIND       PRES   REMARKS
WAUSAU         MOSUNNY   69  33  26 N12G21    29.93R
MOSINEE        MOSUNNY   70  36  28 NW12G17   29.95R
MARSHFIELD     MOSUNNY   70  35  27 NW17      29.95S
STEVENS POINT  MOSUNNY   70  33  25 W13G23    29.93S
WAUPACA        MOSUNNY   75  32  20 W9G20     29.91F
WAUTOMA        PTSUNNY   71  37  28 W14G30    29.93S
WISC RAPIDS    MOSUNNY   73  31  21 NW20      29.94F
CAMP DOUGLAS   MOSUNNY   74  37  25 NW14G23   29.94F
$$

WIZ011>013-019>022-031-037>040-048>050-220000-
NORTHEAST WISCONSIN

CITY           SKY/WX    TMP DP  RH WIND       PRES   REMARKS
ANTIGO         MOSUNNY   65  31  28 NW18G26   29.95R
SHAWANO        PTSUNNY   69  37  31 W5        29.91S
OCONTO         PTSUNNY   57  42  57 E9        29.93F
STURGEON BAY   PTSUNNY   55  34  44 NE12      29.99R
GREEN BAY      CLOUDY    61  46  57 NE14      29.93S
MANITOWOC      LGT RAIN  56  41  57 NE10G24   29.94R
APPLETON       PTSUNNY   68  32  26 NW15G22   29.92S
CLINTONVILLE   MOSUNNY   70  34  26 W8        29.91S
OSHKOSH        MOSUNNY   71  38  29 W6        29.91F
$$

WIZ032>034-041-042-053>061-220000-
SOUTHWEST WISCONSIN

CITY           SKY/WX    TMP DP  RH WIND       PRES   REMARKS
LA CROSSE      SUNNY     74  37  26 NW12      29.97R
SPARTA         SUNNY     73  30  21 W9        29.97S
VIROQUA        MOSUNNY   70  35  27 NW13      29.98S
BOSCOBEL       PTSUNNY   75  44  33 SW9       29.96F
PRAIRIE DU CHI SUNNY     74  26  16 W16G29    29.97S
PLATTEVILLE    SUNNY     70  40  34 W13       30.00F
$$

WIZ056-057-062-063-064-067-068-220000-
SOUTH CENTRAL WISCONSIN

CITY           SKY/WX    TMP DP  RH WIND       PRES   REMARKS
REEDSBURG      MOSUNNY   68  39  34 SW8       29.95F
BARABOO/DELLS  MOSUNNY   71  35  27 W13G22    29.95F
LONE ROCK      SUNNY     73  39  29 W10G20    29.96F
MINERAL POINT  SUNNY     72  36  26 SW10      29.99F
MADISON        MOSUNNY   71  35  26 W10G20    29.96F
MIDDLETON      SUNNY     73  33  23 W9        29.97F
WATERTOWN      MOSUNNY   70  40  33 SW7       29.95F
MONROE         SUNNY     68  41  37 SW14G20   30.00F
JANESVILLE     SUNNY     72  36  26 W12G17    29.99F
$$

WIZ051-052-058>065-066-070>072-220000-
SOUTHEAST WISCONSIN

CITY           SKY/WX    TMP DP  RH WIND       PRES   REMARKS
MILWAUKEE      MOSUNNY   71  32  23 W8G22     29.96F
WAUKESHA       MOSUNNY   68  34  28 W13G18    29.97F
MILWAUKEE/TIMM MOSUNNY   70  30  23 W15G22    29.96F
RACINE         SUNNY     71  34  25 W10       29.98F
BURLINGTON     SUNNY     68  34  28 W9        29.98F
KENOSHA        SUNNY     69  38  32 W13       29.98F
FOND DU LAC    MOSUNNY   73  34  23 W13G23    29.92F
SHEBOYGAN      MOSUNNY   70  36  28 W18G28    29.92S
WEST BEND      CLOUDY    70  32  24 W9        29.94F
JUNEAU         MOSUNNY   70  37  29 W10G20    29.95F
$$

LSZ147-162-220000-
LAKE SUPERIOR

STATION/POSITION TIME  TEMP    WIND        PRES    WAVE
                       AIR SEA DIR/SP/G            HT/PER
                 (UTC) (F)     (DEG/KT/KT) (MB)    (FT/S)
W MID LAKE BUOY  2250   40 37  110/  4/  6   N/A     1
DEVILS ISLAND    2300   56     210/  3/  5   N/A
PORT WING        2200   53      40/  3/  4   N/A
SAXON HARBOR     2240   58      50/  3/  4   N/A
$$

LMZ867-665-643>646-220000-
LAKE MICHIGAN

STATION/POSITION TIME  TEMP    WIND        PRES    WAVE
                       AIR SEA DIR/SP/G            HT/PER
                 (UTC) (F)     (DEG/KT/KT) (MB)    (FT/S)
CHAMBERS ISLAND  2200   55      40/ 16/ 24   N/A
N MID LAKE BUOY  2250   42 36  360/ 10/ 10   N/A     1/ 4
NORTHPORT PIER   2100   53      80/  6/  8   N/A
SISTER BAY       2202   60     100/ 10/ 16   N/A
KEWAUNEE LAKESHO 2200           30/ 10/ 15   N/A
SHEBOYGAN LAKESH 2300   70     260/ 18/ 21   N/A
PORT WASHINGTON  2240   72     260/  8/ 16   N/A
ATWATER BUOY     2200   64 44  250/  8/ 10   N/A
MILWAUKEE LAKESH 2200   69     270/ 13/ 17   N/A
S MID LAKE BUOY  2250   44 38  190/ 14/ 16   N/A     1/ 3
KENOSHA   LAKESH 2300   70     250/  9/ 17   N/A
$$

TC  - TEMPERATURE IN CELSIUS
VSB - VISIBILITY IN STATUTE MILES
WCI - WIND CHILL INDEX
HX  - HEAT INDEX




USA.gov is the U.S. government's official web portal to all federal, state and local government web resources and services.